Lapse_Rate
4.9 4.9 4.9 4.9 5.0 5.1 5.2 5.3 5.3 5.3 5.5 5.7 5.8 5.7 5.5 5.3 5.4 5.6 5.7 5.6 5.7 5.9 6.0 6.0 6.1 6.1 5.9 5.8 5.8 5.9 5.8 5.6 5.4 5.7 5.7 5.9 5.8 5.7 6.0 6.4 6.6 6.8 6.9
5.1 4.9 4.9 5.1 5.0 5.2 5.3 5.3 5.4 5.6 5.6 5.8 5.7 5.6 5.4 5.5 5.5 5.6 5.7 5.7 5.9 6.1 6.2 6.1 6.3 6.2 6.2 6.0 5.8 5.8 6.1 5.9 5.8 5.7 5.8 5.7 5.8 5.9 5.9 6.2 6.6 6.8 6.9
5.1 5.1 4.9 5.1 5.2 5.4 5.5 5.5 5.6 5.6 5.7 5.6 5.5 5.4 5.6 5.6 5.6 5.7 5.8 5.9 5.9 6.2 6.4 6.5 6.5 6.5 6.4 6.4 5.9 6.0 6.1 6.1 5.8 5.8 6.0 5.8 5.8 5.9 6.0 6.4 6.5 6.7 6.7
5.3 5.2 5.1 5.3 5.3 5.5 5.5 5.6 5.7 5.7 5.6 5.5 5.5 5.6 5.7 5.6 5.6 5.8 5.9 5.9 6.0 6.2 6.4 6.4 6.6 6.5 6.2 6.1 5.9 5.9 5.8 6.0 6.0 5.8 5.7 6.0 5.8 5.9 6.0 6.1 6.2 6.4 6.2
5.2 5.5 5.4 5.4 5.5 5.6 5.7 5.7 5.7 5.6 5.5 5.6 5.6 5.6 5.6 5.7 5.9 6.0 6.0 6.1 6.1 6.1 6.3 6.4 6.5 6.5 6.2 6.1 6.0 5.8 5.6 5.5 6.0 6.2 5.9 5.7 5.8 5.9 6.0 6.0 6.0 6.1 6.0
5.4 5.5 5.4 5.5 5.7 5.7 5.8 5.7 5.6 5.5 5.7 5.7 5.7 5.7 5.8 6.0 6.0 6.1 6.2 6.2 6.2 6.2 6.2 6.2 6.3 6.3 6.0 6.0 5.9 5.9 5.8 6.1 6.0 6.2 6.2 5.8 6.0 6.0 6.0 6.1 6.0 6.1 6.1
5.5 5.5 5.4 5.5 5.6 5.6 5.6 5.6 5.5 5.6 5.9 5.7 5.9 5.9 6.0 6.0 6.1 6.2 6.3 6.3 6.3 6.2 6.2 6.1 6.0 6.1 6.0 6.1 6.2 6.0 6.0 6.0 6.1 6.3 6.3 6.2 6.1 6.0 6.2 6.3 6.1 6.0 6.1
5.4 5.7 5.6 5.5 5.4 5.5 5.5 5.5 5.5 5.8 5.8 5.8 6.0 5.9 5.9 5.9 6.1 6.1 6.1 6.2 6.3 6.2 6.0 5.9 5.9 6.1 6.0 5.9 5.9 5.9 5.9 6.1 6.2 6.2 6.4 6.4 6.3 6.1 6.2 6.3 6.2 6.3 6.1
5.6 5.7 5.7 5.6 5.6 5.6 5.6 5.6 5.6 5.8 5.8 5.8 5.8 5.9 5.8 5.9 6.1 6.0 5.8 5.9 6.0 6.0 6.2 6.2 5.9 5.7 5.6 5.5 5.5 5.7 5.8 5.9 5.5 5.6 6.3 6.5 6.4 6.1 6.1 6.3 6.3 6.2 6.1
5.8 5.7 5.8 5.7 5.7 5.7 5.8 5.8 5.8 5.9 5.8 5.7 5.7 5.8 5.8 5.7 5.8 5.8 5.7 5.8 5.8 5.9 6.0 5.9 5.4 5.6 5.4 5.4 5.4 5.4 5.6 5.7 5.5 6.1 6.0 6.3 6.4 6.1 6.1 6.2 6.2 6.2 6.1
6.0 5.9 5.9 5.7 5.8 5.9 5.9 6.0 6.0 5.9 5.7 5.5 5.5 5.5 5.7 5.6 5.6 5.5 5.5 5.7 5.8 5.7 5.8 5.7 5.4 5.6 5.5 5.5 5.4 5.3 5.4 5.5 5.6 5.8 5.9 5.9 6.2 6.3 6.3 6.2 6.3 6.4 6.2
6.3 6.3 6.0 5.9 6.0 6.1 6.2 6.1 6.0 5.8 5.6 5.5 5.5 5.6 5.6 5.5 5.5 5.5 5.5 5.6 5.5 5.7 5.7 5.7 5.8 5.7 5.7 5.6 5.5 5.5 5.3 5.5 5.3 5.4 5.5 5.7 5.8 6.2 6.3 6.5 6.5 6.5 6.3
6.5 6.3 6.3 6.1 6.1 6.2 6.1 6.1 5.9 5.7 5.6 5.7 5.6 5.7 5.5 5.5 5.5 5.5 5.5 5.5 5.7 5.8 5.8 5.8 5.8 5.9 5.8 5.8 5.9 5.8 5.8 5.6 5.7 5.7 5.6 5.8 5.8 6.0 6.3 6.4 6.6 6.6 6.6
6.7 6.4 6.3 6.3 6.3 6.2 6.1 6.0 5.7 5.6 5.7 5.8 5.7 5.7 5.6 5.6 5.6 5.5 5.6 5.8 6.0 6.0 6.0 5.9 5.9 5.9 5.8 5.8 5.7 6.0 6.0 6.0 5.8 5.9 6.0 5.8 5.9 5.9 6.1 6.5 6.4 6.5 6.5
6.7 6.6 6.5 6.4 6.4 6.3 6.1 5.9 5.7 5.7 5.7 5.9 5.9 5.8 5.7 5.7 5.7 5.8 5.9 5.9 6.0 6.0 6.0 6.0 5.9 5.8 5.8 5.8 6.1 6.1 5.6 5.7 5.5 5.8 6.1 5.9 6.0 6.0 6.1 6.1 6.5 6.5 6.4
6.6 6.5 6.5 6.5 6.4 6.4 6.2 6.0 5.8 5.8 5.8 6.0 6.0 6.0 6.0 5.9 5.7 5.9 6.0 6.1 6.1 6.1 6.1 5.9 5.9 5.9 5.7 5.7 5.5 5.5 5.3 5.3 5.4 5.6 5.9 6.0 6.0 6.0 6.1 6.0 6.1 6.6 6.4
6.6 6.5 6.5 6.4 6.4 6.3 6.2 6.1 6.0 5.9 5.9 6.0 6.1 6.0 5.9 5.8 5.9 6.0 6.1 5.9 6.1 6.1 5.9 6.2 5.7 5.8 5.9 5.7 5.4 5.4 5.3 5.2 5.1 5.3 5.8 5.9 6.0 6.1 6.0 6.1 6.1 5.9 6.1
6.5 6.6 6.4 6.4 6.4 6.2 6.1 6.1 6.1 5.9 5.8 5.9 6.2 6.1 5.8 5.8 5.9 6.2 6.1 6.0 6.1 5.9 5.9 6.0 5.9 5.8 5.7 5.7 5.6 5.5 5.5 5.0 4.6 5.3 5.5 5.8 5.8 6.1 6.0 6.0 5.9 5.8 5.8
6.6 6.6 6.5 6.5 6.4 6.1 5.9 6.0 6.0 5.9 5.9 6.0 6.3 5.9 5.8 5.8 5.8 6.3 6.2 6.2 6.1 6.0 6.1 6.2 6.2 6.1 6.0 5.9 5.7 5.6 5.5 4.1 4.4 4.9 5.3 5.6 5.8 5.9 5.9 5.9 5.9 5.9 5.9
6.4 6.2 6.1 6.0 6.1 6.0 5.8 5.9 6.1 6.2 6.2 6.2 6.1 5.9 5.9 5.8 5.8 6.0 6.1 6.0 6.0 6.0 6.4 6.3 6.2 6.1 5.9 6.0 5.7 5.4 5.4 5.1 4.7 3.8 4.8 5.4 5.4 5.8 6.0 5.9 5.9 6.1 6.1
6.3 6.0 6.1 6.2 6.2 6.1 6.1 6.3 6.5 6.5 6.3 6.3 6.1 5.9 5.8 5.7 5.8 5.8 6.2 6.0 6.0 6.2 6.2 6.1 6.2 6.1 6.1 6.1 5.9 5.6 5.4 5.4 5.0 4.8 4.9 5.1 5.4 5.5 5.7 5.9 6.0 6.0 6.1
6.8 6.7 6.5 6.4 6.2 6.2 6.3 6.3 6.5 6.3 6.2 6.1 6.1 6.1 5.9 6.0 5.6 5.8 6.2 6.0 6.2 6.2 6.2 6.3 6.2 6.0 6.0 6.1 6.0 5.8 5.6 5.3 5.2 5.2 4.6 5.3 5.4 5.5 5.7 5.9 5.9 6.0 6.0
7.1 7.0 6.9 6.8 6.6 6.5 6.3 6.4 6.4 6.5 6.5 6.6 6.6 6.4 6.1 5.9 5.7 5.9 6.0 6.2 6.2 6.3 6.3 6.2 6.2 6.0 6.1 6.0 6.1 5.9 5.7 5.5 5.2 5.4 4.7 5.3 5.2 5.3 5.5 5.6 5.7 5.8 5.9
7.0 6.9 6.8 6.7 6.6 6.3 6.2 6.4 6.4 6.3 6.4 6.3 6.2 6.1 5.9 5.9 6.0 6.0 6.1 6.3 6.2 6.4 6.4 6.3 6.3 6.2 6.1 6.2 6.3 6.1 5.9 5.3 5.2 5.3 5.2 5.3 5.4 5.3 5.3 5.3 5.3 5.5 5.6
7.1 7.2 7.1 6.9 6.7 6.5 6.5 6.3 6.3 6.4 6.3 6.2 6.3 6.2 6.1 6.3 6.4 6.5 6.4 6.3 6.4 6.5 6.4 6.4 6.5 6.4 6.3 6.4 6.2 6.0 5.6 5.2 5.3 5.4 5.4 5.2 5.2 5.4 5.6 5.3 5.1 5.2 5.4
6.9 7.0 7.0 6.9 6.8 6.6 6.5 6.4 6.5 6.4 6.3 6.3 6.3 6.3 6.2 6.4 6.5 6.6 6.6 6.5 6.5 6.5 6.4 6.6 6.6 6.4 6.5 6.4 6.3 6.2 6.0 5.8 5.8 5.7 5.9 6.0 5.8 5.8 5.8 5.6 5.3 5.1 4.9
Wind_Speed
6 15 17 20 21 20 20 21 21 21 22 22 22 20 18 17 15 14 13 12 12 10 10 11 11 10 10 11 11 12 12 10 9 9 10 10 10 13 13 14 12 12 15
11 14 15 19 20 21 20 21 20 19 21 20 20 19 18 16 14 12 12 11 9 10 9 10 9 10 9 8 9 9 9 9 9 10 10 10 10 10 13 12 13 12 14
10 14 17 19 20 21 20 19 19 19 19 19 18 18 16 14 12 11 10 9 9 8 7 9 8 9 7 6 7 7 7 7 8 8 9 7 9 11 12 13 12 13 12
11 13 18 19 20 20 19 18 17 18 18 17 17 16 14 13 11 9 9 8 6 7 7 8 8 8 6 4 3 6 6 7 7 9 6 4 11 11 12 12 13 13 14
9 14 19 20 20 20 18 17 16 17 17 16 15 14 13 11 9 8 7 6 5 7 7 7 8 7 6 4 3 2 5 7 9 9 5 6 6 12 12 12 11 13 12
8 12 20 21 21 19 18 17 17 17 16 14 13 12 11 10 8 7 5 4 5 6 7 8 8 5 5 4 3 6 6 4 10 10 5 7 8 13 12 13 13 12 12
7 10 17 20 19 18 17 16 15 15 14 12 11 10 10 8 7 5 4 3 4 6 8 8 7 4 4 3 2 5 7 8 11 10 8 6 6 10 13 13 13 13 13
9 10 13 19 19 17 16 15 14 13 12 10 9 9 7 6 5 3 2 2 4 6 7 7 5 4 2 2 3 5 10 8 8 8 8 6 7 11 10 13 12 11 12
9 9 12 13 17 17 15 14 13 12 11 10 9 7 6 4 2 1 1 3 4 6 6 5 3 4 3 2 3 2 8 9 8 7 7 6 8 12 12 11 13 9 11
5 7 8 12 13 14 14 14 13 11 10 9 7 6 5 3 2 1 2 3 3 3 3 3 3 3 1 0 2 3 7 6 7 5 5 6 5 10 11 11 12 11 10
6 5 8 8 11 13 13 13 13 11 10 9 7 5 3 0 2 2 4 5 4 1 1 1 2 1 2 3 2 3 5 3 4 3 3 7 7 9 10 11 10 13 10
11 8 7 7 9 11 10 11 12 11 9 7 6 4 3 3 4 6 6 6 2 2 1 1 1 2 3 1 1 2 3 4 4 4 4 8 9 10 10 10 9 12 12
13 10 9 7 10 10 9 10 9 10 8 7 7 5 5 5 5 4 5 3 4 3 3 2 2 3 1 0 2 0 3 5 4 4 4 7 11 10 12 11 11 10 10
12 13 10 9 8 10 8 8 8 7 8 7 9 8 6 4 5 4 4 5 5 5 5 3 1 2 3 2 3 3 3 5 4 3 4 5 10 8 9 11 11 9 8
13 13 11 10 9 10 7 7 8 8 8 9 9 11 9 6 4 4 6 6 6 6 6 2 2 2 4 3 2 2 2 4 5 1 2 5 8 8 6 9 11 11 10
13 13 12 12 10 11 7 7 7 9 10 10 12 14 13 10 5 5 4 5 7 8 4 0 2 2 2 2 1 1 4 5 1 3 3 6 7 7 6 7 9 13 11
12 13 13 13 11 9 9 8 8 9 10 9 11 15 14 13 10 8 5 4 6 4 2 2 3 3 3 4 4 2 3 4 4 5 5 5 4 4 5 8 7 9 10
12 13 12 12 12 10 8 7 8 10 10 10 12 12 15 14 12 9 4 4 4 2 4 2 1 1 1 2 2 2 2 2 4 3 3 4 5 4 4 4 6 8 9
14 13 12 12 12 12 9 7 8 9 10 11 10 12 14 15 14 11 6 6 5 3 2 1 1 1 1 2 2 3 4 2 3 3 3 5 4 3 3 2 3 6 7
14 13 12 11 12 12 7 4 3 3 5 9 10 11 13 14 16 11 7 6 6 2 2 1 1 1 2 2 2 4 3 3 4 2 2 3 3 5 4 1 1 0 4
13 13 14 13 11 9 5 5 4 6 4 3 7 11 12 13 13 11 6 5 5 3 3 2 2 1 1 1 2 2 3 5 4 3 2 1 4 4 5 3 3 4 4
16 17 16 17 14 12 9 7 4 5 3 3 5 7 10 12 13 11 8 5 4 3 3 3 3 1 1 1 2 1 2 3 3 5 3 3 3 3 4 5 5 5 4
18 18 17 18 17 14 13 6 2 3 2 2 2 2 5 13 13 12 11 7 5 4 4 3 3 4 3 1 2 2 2 2 0 3 4 3 3 2 2 4 4 4 3
20 18 18 16 15 14 14 11 13 10 9 8 5 5 6 13 10 11 11 10 6 4 4 4 4 3 3 3 1 2 3 2 2 0 1 1 2 0 1 1 1 3 4
18 18 18 18 18 17 17 17 12 12 8 4 3 7 6 5 9 11 12 10 6 4 5 6 5 4 3 2 2 2 1 1 1 2 2 1 1 2 3 4 4 5 5
16 16 16 17 17 17 16 18 16 16 9 7 4 7 5 4 4 7 10 11 10 5 6 6 5 5 4 3 2 2 3 2 2 2 2 2 2 2 2 4 5 6 6
Wind_Direction
156 149 141 138 129 127 126 117 111 111 114 113 112 115 118 111 109 106 97 89 86 85 81 84 95 105 107 103 106 110 110 114 115 115 115 115 117 113 113 109 113 109 109
131 146 141 135 124 124 120 117 116 117 113 112 115 118 112 112 111 106 102 96 94 92 86 87 90 93 95 113 117 119 123 125 114 119 121 120 127 124 113 113 114 116 107
126 138 137 132 125 122 120 118 121 119 115 115 116 113 117 116 112 108 100 92 85 77 82 87 83 82 87 118 134 136 126 111 100 123 113 103 135 133 110 118 120 121 121
126 134 141 132 127 123 121 124 123 119 119 118 117 119 120 117 116 113 103 93 85 80 72 70 73 79 80 73 124 150 141 132 116 117 111 96 131 115 118 111 110 112 109
114 131 138 135 132 129 130 129 127 126 124 123 125 125 122 121 121 118 105 96 79 70 70 70 70 68 76 65 56 145 177 169 149 122 107 111 122 130 122 114 112 114 116
118 133 142 141 137 136 136 138 133 130 128 128 132 131 129 126 128 122 116 102 77 71 71 74 73 70 71 66 79 133 87 117 159 135 122 115 129 128 122 124 115 113 112
124 139 147 147 144 143 146 143 137 134 130 137 139 140 131 132 126 128 122 88 68 59 69 74 80 81 65 51 83 126 123 106 129 136 134 130 139 136 133 124 111 113 113
139 141 149 153 153 152 153 150 146 141 141 143 148 146 141 131 124 122 104 54 44 56 65 76 73 68 72 80 76 109 136 104 117 128 133 144 136 144 138 127 124 120 117
144 142 153 161 160 162 163 160 159 154 153 163 160 157 155 143 130 107 49 22 25 57 60 74 68 55 47 82 70 113 119 123 123 133 141 156 173 149 141 142 136 134 129
145 152 148 162 169 170 171 174 171 170 169 174 167 167 179 167 177 288 329 333 344 40 64 69 72 53 5 247 112 127 113 108 139 133 147 156 170 146 148 151 143 143 133
161 161 158 165 170 175 179 186 185 186 184 186 188 192 209 286 289 301 295 292 280 306 168 163 136 126 246 286 154 145 160 115 148 149 173 184 180 170 163 161 164 152 152
177 174 172 170 176 175 184 198 193 197 198 199 207 216 242 267 278 283 290 304 289 284 184 205 33 110 92 311 220 233 140 145 153 179 181 193 195 183 174 167 169 167 171
180 180 179 178 183 177 190 193 194 199 205 210 220 227 243 255 261 302 297 314 317 313 307 318 10 22 131 282 10 278 144 162 167 195 190 195 205 197 179 185 181 182 181
180 186 180 180 185 187 185 186 192 192 205 211 222 230 236 252 285 293 280 293 294 284 284 288 291 101 84 24 61 75 152 171 197 173 188 212 209 218 198 190 186 193 203
185 185 184 184 188 190 181 183 191 200 199 212 221 231 226 229 248 269 265 269 268 274 268 307 314 10 74 27 74 128 186 224 219 181 171 208 200 220 209 210 194 192 201
189 187 183 190 189 186 195 189 199 200 205 209 223 227 228 225 236 241 247 274 262 260 270 150 85 9 358 72 29 58 218 225 193 212 200 225 234 222 224 208 206 206 208
194 186 188 189 187 189 199 199 191 204 211 214 222 226 223 226 214 232 222 251 254 254 178 133 68 22 14 53 104 41 346 293 244 211 210 225 251 266 228 221 205 209 206
187 188 189 191 189 194 199 197 195 197 209 221 224 214 217 224 224 221 224 244 253 198 167 101 57 47 16 17 4 31 19 287 256 200 209 231 247 259 270 211 203 201 212
188 186 188 188 188 193 199 195 200 202 211 221 212 213 213 215 219 210 205 232 189 145 130 113 77 107 37 15 8 25 26 23 198 142 217 238 254 246 256 277 213 203 207
188 187 187 188 187 188 190 186 190 202 227 238 225 211 212 204 204 199 199 199 191 156 154 131 144 64 68 23 29 41 37 2 56 49 186 205 198 194 208 217 119 183 232
185 184 187 185 190 177 176 183 203 216 207 221 217 208 201 199 195 189 188 196 195 177 181 173 118 91 54 37 49 29 28 30 43 39 29 95 63 127 129 115 53 39 39
189 192 188 193 188 190 191 200 195 186 196 191 210 212 202 199 195 190 183 196 184 170 176 172 142 120 21 87 119 98 52 357 32 20 22 39 62 56 89 82 90 84 70
196 195 195 195 192 191 193 175 103 96 81 153 203 209 207 206 199 195 187 180 183 179 184 179 159 159 177 122 129 138 130 181 81 0 16 23 50 64 49 88 104 108 106
201 195 197 195 194 194 187 190 198 203 203 211 193 195 203 206 202 192 185 185 188 184 181 194 171 167 150 173 119 62 70 141 147 145 349 352 13 96 315 305 172 170 168
202 199 196 192 194 193 190 196 196 207 210 189 174 184 195 197 197 198 186 186 191 191 188 183 171 178 164 146 154 147 110 76 91 137 195 253 319 255 244 238 237 226 202
205 202 198 195 197 193 193 199 198 205 193 182 180 194 187 192 192 201 188 186 193 189 186 191 185 174 176 154 164 165 170 171 181 150 137 192 210 279 267 243 238 232 225